| time (UTC) | temp F | wind direction | speed MPH | gust MPH | rain 1hr in | rain 24hr in | rain mn in | humidity % | barometer mb |
| 20260509204602 | 71 | 23 | 2.0 | 7.0 | 0.00 | 0.00 | 0.00 | 36 | 1020.2 |
| 20260509201602 | 70 | 355 | 1.0 | 3.0 | 0.00 | 0.00 | 0.00 | 37 | 1020.5 |
| 20260509194601 | 69 | 54 | 1.0 | 5.0 | 0.00 | 0.00 | 0.00 | 33 | 1020.9 |
| 20260509193102 | 68 | 134 | 0.0 | 5.0 | 0.00 | 0.00 | 0.00 | 33 | 1021.0 |
| 20260509191602 | 67 | 61 | 0.0 | 5.0 | 0.00 | 0.00 | 0.00 | 35 | 1021.3 |
| 20260509184601 | 67 | 198 | 1.0 | 4.0 | 0.00 | 0.00 | 0.00 | 36 | 1021.7 |
| 20260509183101 | 66 | 249 | 0.0 | 4.0 | 0.00 | 0.00 | 0.00 | 39 | 1021.7 |
| 20260509181602 | 64 | 193 | 0.0 | 5.0 | 0.00 | 0.00 | 0.00 | 41 | 1022.0 |
| 20260509174602 | 64 | 193 | 0.0 | 5.0 | 0.00 | 0.00 | 0.00 | 41 | 1022.0 |
| 20260509171602 | 62 | 163 | 0.0 | 4.0 | 0.00 | 0.00 | 0.00 | 47 | 1022.4 |
| 20260509164602 | 61 | 125 | 1.0 | 4.0 | 0.00 | 0.00 | 0.00 | 48 | 1022.4 |
| 20260509163102 | 61 | 116 | 1.0 | 4.0 | 0.00 | 0.00 | 0.00 | 46 | 1022.5 |
| 20260509161602 | 60 | 210 | 0.0 | 1.0 | 0.00 | 0.00 | 0.00 | 48 | 1022.4 |
| 20260509153105 | 56 | 106 | 0.0 | 1.0 | 0.00 | 0.00 | 0.00 | 52 | 1022.5 |
| 20260509151602 | 55 | 95 | 0.0 | 1.0 | 0.00 | 0.00 | 0.00 | 54 | 1022.4 |
| 20260509143102 | 53 | 129 | 0.0 | 0.0 | 0.00 | 0.00 | 0.00 | 60 | 1022.4 |
| 20260509141602 | 48 | 219 | 0.0 | 1.0 | 0.00 | 0.00 | 0.00 | 67 | 1022.5 |
| 20260509134601 | 46 | 282 | 0.0 | 0.0 | 0.00 | 0.00 | 0.00 | 69 | 1022.3 |
| 20260509133101 | 43 | 283 | 0.0 | 0.0 | 0.00 | 0.00 | 0.00 | 73 | 1022.1 |
| 20260509131601 | 40 | 282 | 0.0 | 2.0 | 0.00 | 0.00 | 0.00 | 78 | 1021.8 |
| 20260509124601 | 42 | 336 | 0.0 | 1.0 | 0.00 | 0.00 | 0.00 | 72 | 1021.5 |
| 20260509123102 | 41 | 330 | 0.0 | 3.0 | 0.00 | 0.00 | 0.00 | 73 | 1021.4 |
| 20260509121602 | 40 | 341 | 0.0 | 2.0 | 0.00 | 0.00 | 0.00 | 73 | 1021.4 |
| 20260509114601 | 42 | 338 | 1.0 | 3.0 | 0.00 | 0.00 | 0.00 | 71 | 1021.2 |
| 20260509113102 | 42 | 336 | 2.0 | 3.0 | 0.00 | 0.00 | 0.00 | 70 | 1021.3 |
| 20260509111602 | 42 | 331 | 0.0 | 2.0 | 0.00 | 0.00 | 0.00 | 70 | 1021.3 |
| 20260509104601 | 45 | 315 | 0.0 | 3.0 | 0.00 | 0.00 | 0.00 | 64 | 1021.3 |
| 20260509103101 | 44 | 353 | 1.0 | 2.0 | 0.00 | 0.00 | 0.00 | 65 | 1021.1 |
| 20260509101601 | 44 | 281 | 0.0 | 1.0 | 0.00 | 0.00 | 0.00 | 65 | 1021.0 |
| 20260509100105 | 46 | 336 | 0.0 | 4.0 | 0.00 | 0.00 | 0.00 | 62 | 1020.8 |
| 20260509094602 | 45 | 333 | 0.0 | 5.0 | 0.00 | 0.00 | 0.00 | 62 | 1020.7 |
| 20260509093102 | 45 | 345 | 1.0 | 1.0 | 0.00 | 0.00 | 0.00 | 61 | 1020.5 |
| 20260509091601 | 45 | 330 | 0.0 | 5.0 | 0.00 | 0.00 | 0.00 | 62 | 1020.4 |
| 20260509090101 | 46 | 349 | 0.0 | 3.0 | 0.00 | 0.00 | 0.00 | 59 | 1020.4 |
| 20260509084601 | 47 | 339 | 0.0 | 5.0 | 0.00 | 0.00 | 0.00 | 57 | 1020.2 |
| 20260509083104 | 47 | 350 | 1.0 | 4.0 | 0.00 | 0.00 | 0.00 | 58 | 1020.2 |
| 20260509074602 | 47 | 333 | 2.0 | 6.0 | 0.00 | 0.00 | 0.00 | 59 | 1019.8 |
| 20260509073102 | 46 | 341 | 1.0 | 4.0 | 0.00 | 0.00 | 0.00 | 61 | 1019.6 |
| 20260509071605 | 48 | 347 | 0.0 | 3.0 | 0.00 | 0.00 | 0.00 | 57 | 1019.5 |
| 20260509064602 | 48 | 336 | 0.0 | 2.0 | 0.00 | 0.00 | 0.00 | 57 | 1019.2 |
| 20260509063105 | 50 | 36 | 0.0 | 5.0 | 0.00 | 0.00 | 0.00 | 53 | 1019.1 |
| 20260509053101 | 50 | 8 | 0.0 | 5.0 | 0.00 | 0.00 | 0.00 | 53 | 1018.8 |
| 20260509051601 | 52 | 330 | 1.0 | 6.0 | 0.00 | 0.00 | 0.00 | 47 | 1018.5 |
| 20260509050101 | 52 | 339 | 0.0 | 3.0 | 0.00 | 0.00 | 0.00 | 46 | 1018.3 |
| 20260509044604 | 54 | 281 | 0.0 | 3.0 | 0.00 | 0.00 | 0.00 | 42 | 1018.2 |
| 20260509043102 | 57 | 302 | 0.0 | 5.0 | 0.00 | 0.00 | 0.00 | 37 | 1018.1 |
| 20260509041602 | 58 | 338 | 1.0 | 8.0 | 0.00 | 0.00 | 0.00 | 37 | 1018.0 |
| 20260509033101 | 57 | 335 | 1.0 | 7.0 | 0.00 | 0.00 | 0.00 | 43 | 1017.2 |
| 20260509031601 | 58 | 5 | 0.0 | 3.0 | 0.00 | 0.00 | 0.00 | 41 | 1017.0 |
| 20260509030105 | 61 | 313 | 0.0 | 4.0 | 0.00 | 0.00 | 0.00 | 42 | 1016.6 |
| 20260509024602 | 65 | 262 | 2.0 | 4.0 | 0.00 | 0.00 | 0.00 | 36 | 1016.4 |
| 20260509023102 | 67 | 283 | 1.0 | 9.0 | 0.00 | 0.00 | 0.00 | 30 | 1016.1 |
| 20260509021602 | 69 | 252 | 1.0 | 3.0 | 0.00 | 0.00 | 0.00 | 33 | 1016.0 |
| 20260509020105 | 71 | 291 | 3.0 | 9.0 | 0.00 | 0.00 | 0.00 | 28 | 1015.8 |
| 20260509014605 | 72 | 291 | 6.0 | 6.0 | 0.00 | 0.00 | 0.00 | 27 | 1015.7 |
| 20260509013109 | 71 | 266 | 1.0 | 7.0 | 0.00 | 0.00 | 0.00 | 28 | 1015.6 |
| 20260509011604 | 72 | 283 | 2.0 | 8.0 | 0.00 | 0.00 | 0.00 | 25 | 1015.6 |
| 20260509004601 | 73 | 253 | 5.0 | 8.0 | 0.00 | 0.00 | 0.00 | 23 | 1015.8 |
| 20260509003102 | 73 | 302 | 5.0 | 11.0 | 0.00 | 0.00 | 0.00 | 21 | 1015.8 |
| 20260508234601 | 74 | 261 | 10.0 | 12.0 | 0.00 | 0.00 | 0.00 | 24 | 1015.7 |
| 20260508233102 | 73 | 261 | 7.0 | 12.0 | 0.00 | 0.00 | 0.00 | 24 | 1015.7 |
| 20260508231602 | 73 | 295 | 4.0 | 9.0 | 0.00 | 0.00 | 0.00 | 24 | 1015.8 |
| 20260508224602 | 72 | 280 | 5.0 | 10.0 | 0.00 | 0.00 | 0.00 | 23 | 1015.7 |
| 20260508223102 | 72 | 302 | 4.0 | 14.0 | 0.00 | 0.00 | 0.00 | 28 | 1015.7 |
| 20260508221602 | 71 | 242 | 7.0 | 13.0 | 0.00 | 0.00 | 0.00 | 28 | 1015.6 |
| 20260508220104 | 72 | 301 | 1.0 | 10.0 | 0.00 | 0.00 | 0.00 | 26 | 1015.7 |
| 20260508214602 | 71 | 259 | 2.0 | 11.0 | 0.00 | 0.00 | 0.00 | 26 | 1015.8 |
| 20260508213102 | 72 | 266 | 5.0 | 17.0 | 0.00 | 0.00 | 0.00 | 26 | 1016.0 |
| 20260508211602 | 72 | 252 | 5.0 | 14.0 | 0.00 | 0.00 | 0.00 | 27 | 1016.1 |